{"data":{"norad_id":53031,"epoch":"2026-09-20T00:05:04.437312Z","epoch_age_seconds":112336,"freshness":"FRESH","line1":"1 53031U 22076AX  26263.00352358  .00000217  00000+0  17138-4 0  9997","line2":"2 53031  53.1593 272.3995 0001266  91.7708 268.3440 15.35400271232589","mean_motion":15.35400271,"eccentricity":0.0001266,"inclination_deg":53.1593,"raan_deg":272.3995,"arg_perigee_deg":91.7708,"mean_anomaly_deg":268.344,"bstar":1.7138e-5,"rev_number":23258,"period_min":93.786618851001,"perigee_km":458.86616395133,"apogee_km":460.59751234115,"semimajor_km":6837.8688381462,"source":"CELESTRAK","updated_at":"2026-09-20T09:00:40.148073Z"}}